Location: Newark
(33.8183°N, 118.0392°W)
Time: 07:04:51
(UTC+00:00)

LightSail 2 - Pass Details

Date: 23 October 2019
Orbit: 700 x 727 km, 24.0° (Epoch: 17 November)

Event Time Altitude Azimuth Distance (km) Brightness Sun altitude
Rises 01:38:34 0° 254° (WSW) 3,068 10.9 -6.6°
Reaches altitude 10° 01:41:49 10° 234° (SW) 2,152 8.8 -7.3°
Maximum altitude 01:44:55 16° 196° (SSW) 1,769 7.5 -7.9°
Drops below altitude 10° 01:48:01 10° 158° (SSE) 2,159 7.5 -8.6°
Sets 01:51:17 0° 137° (SE) 3,082 8.1 -9.3°
